Location: Ferintosh
(52.7647°N, 112.9692°W)
Time: 14:55:42
(UTC+00:00)

Transit 2A - Pass Details

Date: 23 May 2024
Orbit: 593 x 959 km, 66.7° (Epoch: 14 June)

Event Time Altitude Azimuth Distance (km) Brightness Sun altitude
Rises 12:48:36 0° 318° (NW) 3,302 9.1 10.6°
Reaches altitude 10° 12:51:04 10° 326° (NW) 2,426 8.5 10.9°
Maximum altitude 12:56:26 43° 37° (NE) 1,224 8.0 11.7°
Drops below altitude 10° 13:02:14 10° 108° (ESE) 2,622 9.8 12.5°
Sets 13:04:59 0° 115° (ESE) 3,596 10.3 12.9°
